Location: Home
(42.5358°N, 72.7383°W)
Time: 21:01:26
(UTC-05:00)

Vanguard 2 Rocket - Pass Details

Date: 30 November 2021
Orbit: 554 x 3325 km, 32.9° (Epoch: 21 January)

Event Time Altitude Azimuth Distance (km) Brightness Sun altitude
Rises 20:43:56 0° 257° (WSW) 4,179 10.9 -48.0°
Reaches altitude 10° 20:46:21 10° 252° (WSW) 3,491 10.3 -48.4°
Enters shadow 20:50:18 32° 237° (WSW) 2,618 9.3 -49.1°
Maximum altitude 20:55:26 54° 178° (S) 2,383 - -50.0°
Drops below altitude 10° 21:11:00 10° 108° (ESE) 5,762 - -52.7°
Sets 21:16:17 0° 105° (ESE) 7,051 - -53.6°
